Weather History for Pampa, TX

Change the Weather History Date:

Friday, November 8, 2013

  Actual Average Record
Temperature  
Mean Temperature 52 °F -  
Max Temperature 68 °F 62 °F 81 °F (1980)
Min Temperature 35 °F 37 °F 21 °F (1991)
Degree Days  
Heating Degree Days 14    
Growing Degree Days 2 (Base 50)    
Moisture  
Dew Point 22 °F    
Average Humidity 36    
Maximum Humidity 78    
Minimum Humidity 13    
Precipitation  
Precipitation 0.00 in - - ()
Sea Level Pressure  
Sea Level Pressure 30.07 in    
Wind  
Wind Speed 18 mph (SSW)    
Max Wind Speed 31 mph    
Max Gust Speed 41 mph    
Visibility 10 miles    
Events      
Averages and records for this station are not official NWS values.
T = Trace of Precipitation, MM = Missing Value Source: NWS Daily Summary

Daily Weather History Graph

Daily Weather History Graph

Search for Another Location

Airport:

Trip Planner

Search our weather history database for the weather conditions in past years. The results will help you decide how hot, cold, wet, or windy it might be!

Date:

Astronomy

Nov. 08, 2013 Rise Set
Actual Time 7:13 AM CST 5:42 PM CST
Civil Twilight 6:46 AM CST 6:08 PM CST
Nautical Twilight 6:15 AM CST 6:39 PM CST
Astronomical Twilight 5:45 AM CST 7:09 PM CST
Moon 12:10 PM CST (11/8) 11:04 PM CST (11/8)
Length of Visible Light 11h 22m
Length of Day
10h 29m
Waxing Crescent, 33% of the Moon is Illuminated
Nov 8
Waxing Crescent
Nov 9
First Quarter
Nov 17
Full
Nov 25
Last Quarter
Dec 2
New

Hourly Weather History & Observations

Time (CST) Temp. Windchill Dew Point Humidity Pressure Visibility Wind Dir Wind Speed Gust Speed Precip Events Conditions
12:15 AM 39.2 °F 32.5 °F 21.7 °F 50% 30.27 in 10.0 mi South 10.4 mph - N/A   Clear
12:35 AM 41.2 °F 34.1 °F 21.7 °F 46% 30.27 in 10.0 mi SSW 12.7 mph - N/A   Clear
12:55 AM 41.0 °F 33.9 °F 21.6 °F 46% 30.26 in 10.0 mi SSW 12.7 mph - N/A   Clear
1:15 AM 40.1 °F 32.0 °F 21.6 °F 48% 30.26 in 10.0 mi SSW 15.0 mph - N/A   Clear
1:35 AM 40.6 °F 33.8 °F 20.8 °F 45% 30.25 in 10.0 mi SSW 11.5 mph - N/A   Clear
1:55 AM 41.2 °F 33.7 °F 20.3 °F 43% 30.25 in 10.0 mi SSW 13.8 mph - N/A   Clear
2:15 AM 39.2 °F 31.6 °F 20.3 °F 47% 30.24 in 10.0 mi SSW 12.7 mph - N/A   Clear
2:35 AM 40.1 °F 31.6 °F 20.1 °F 45% 30.23 in 10.0 mi SSW 16.1 mph 21.9 mph N/A   Clear
2:55 AM 40.5 °F 32.8 °F 19.8 °F 44% 30.23 in 10.0 mi SSW 13.8 mph - N/A   Clear
3:15 AM 40.6 °F 31.7 °F 19.4 °F 43% 30.21 in 10.0 mi SSW 18.4 mph 24.2 mph N/A   Clear
3:35 AM 40.1 °F 31.0 °F 19.4 °F 43% 30.21 in 10.0 mi SSW 18.4 mph 24.2 mph N/A   Clear
3:55 AM 39.2 °F 30.2 °F 19.4 °F 45% 30.21 in 10.0 mi SSW 17.3 mph - N/A   Clear
4:15 AM 38.8 °F 30.4 °F 19.4 °F 46% 30.19 in 10.0 mi SSW 15.0 mph - N/A   Clear
4:35 AM 37.6 °F 28.8 °F 19.4 °F 48% 30.19 in 10.0 mi SSW 15.0 mph - N/A   Clear
4:55 AM 36.7 °F 27.6 °F 19.4 °F 50% 30.18 in 10.0 mi SSW 15.0 mph - N/A   Clear
5:15 AM 36.1 °F 27.3 °F 19.6 °F 51% 30.18 in 10.0 mi SSW 13.8 mph - N/A   Clear
5:35 AM 36.1 °F 26.5 °F 19.8 °F 51% 30.17 in 10.0 mi SSW 16.1 mph - N/A   Clear
5:55 AM 35.8 °F 26.9 °F 20.1 °F 53% 30.16 in 10.0 mi SSW 13.8 mph - N/A   Clear
6:15 AM 36.7 °F 28.0 °F 20.1 °F 51% 30.16 in 10.0 mi SSW 13.8 mph - N/A   Clear
6:35 AM 37.2 °F 29.6 °F 20.5 °F 51% 30.16 in 10.0 mi SSW 11.5 mph - N/A   Clear
6:55 AM 39.2 °F 30.8 °F 20.3 °F 47% 30.16 in 10.0 mi SSW 15.0 mph 20.7 mph N/A   Clear
7:15 AM 39.7 °F 30.9 °F 19.6 °F 44% 30.15 in 10.0 mi SW 17.3 mph 23.0 mph N/A   Clear
7:35 AM 42.6 °F 33.1 °F 17.6 °F 37% 30.14 in 10.0 mi SW 24.2 mph 31.1 mph N/A   Clear
7:55 AM 43.9 °F 34.5 °F 17.6 °F 35% 30.14 in 10.0 mi SSW 25.3 mph 31.1 mph N/A   Clear
8:15 AM 46.4 °F 37.4 °F 16.9 °F 31% 30.14 in 10.0 mi SW 28.8 mph 38.0 mph N/A   Clear
8:35 AM 48.2 °F - 15.6 °F 27% 30.14 in 10.0 mi SW 29.9 mph 36.8 mph N/A   Clear
8:55 AM 50.2 °F - 15.8 °F 26% 30.14 in 10.0 mi SW 27.6 mph 35.7 mph N/A   Clear
9:15 AM 52.7 °F - 15.3 °F 23% 30.14 in 10.0 mi SW 25.3 mph 39.1 mph N/A   Clear
9:35 AM 54.3 °F - 15.3 °F 21% 30.14 in 10.0 mi SW 24.2 mph 34.5 mph N/A   Clear
9:55 AM 56.1 °F - 13.8 °F 19% 30.13 in 10.0 mi SW 23.0 mph 36.8 mph N/A   Clear
10:15 AM 58.5 °F - 13.3 °F 17% 30.11 in 10.0 mi SW 23.0 mph 36.8 mph N/A   Clear
10:35 AM 59.9 °F - 13.8 °F 16% 30.10 in 10.0 mi SW 28.8 mph 36.8 mph N/A   Clear
10:55 AM 60.6 °F - 12.7 °F 15% 30.08 in 10.0 mi SSW 29.9 mph 41.4 mph N/A   Clear
11:15 AM 62.1 °F - 12.0 °F 14% 30.07 in 10.0 mi SSW 28.8 mph 40.3 mph N/A   Clear
11:35 AM 63.5 °F - 11.3 °F 13% 30.06 in 10.0 mi SSW 29.9 mph 36.8 mph N/A   Clear
11:55 AM 65.5 °F - 12.7 °F 13% 30.06 in 10.0 mi SSW 26.5 mph 36.8 mph N/A   Clear
12:15 PM 66.4 °F - 14.2 °F 13% 30.05 in 10.0 mi SSW 26.5 mph 35.7 mph N/A   Clear
12:35 PM 66.4 °F - 14.4 °F 13% 30.03 in 10.0 mi SSW 28.8 mph 38.0 mph N/A   Clear
12:55 PM 67.5 °F - 14.7 °F 13% 30.02 in 10.0 mi SSW 29.9 mph 35.7 mph N/A   Clear
1:15 PM 67.5 °F - 15.4 °F 14% 30.00 in 10.0 mi SSW 29.9 mph 36.8 mph N/A   Clear
1:35 PM 66.6 °F - 14.9 °F 14% 29.99 in 10.0 mi SSW 29.9 mph 36.8 mph N/A   Clear
1:55 PM 67.5 °F - 14.9 °F 13% 29.99 in 10.0 mi SSW 26.5 mph 35.7 mph N/A   Clear
2:15 PM 68.2 °F - 14.9 °F 13% 29.97 in 10.0 mi SSW 27.6 mph 34.5 mph N/A   Clear
2:35 PM 68.2 °F - 15.8 °F 13% 29.96 in 10.0 mi SSW 31.1 mph 39.1 mph N/A   Clear
2:55 PM 68.0 °F - 17.2 °F 14% 29.96 in 10.0 mi SSW 25.3 mph 35.7 mph N/A   Clear
3:15 PM 67.5 °F - 18.1 °F 15% 29.96 in 10.0 mi SSW 26.5 mph 33.4 mph N/A   Clear
3:35 PM 67.5 °F - 18.0 °F 15% 29.96 in 10.0 mi SSW 25.3 mph 35.7 mph N/A   Clear
3:55 PM 67.1 °F - 20.8 °F 17% 29.95 in 10.0 mi SSW 23.0 mph 33.4 mph N/A   Clear
4:15 PM 65.8 °F - 21.4 °F 18% 29.95 in 10.0 mi SSW 24.2 mph 34.5 mph N/A   Clear
4:35 PM 65.7 °F - 23.7 °F 20% 29.95 in 10.0 mi SSW 20.7 mph 33.4 mph N/A   Clear
4:55 PM 64.8 °F - 24.4 °F 22% 29.94 in 10.0 mi SSW 23.0 mph 29.9 mph N/A   Clear
5:15 PM 62.8 °F - 23.7 °F 23% 29.94 in 10.0 mi SSW 20.7 mph 26.5 mph N/A   Clear
5:35 PM 60.1 °F - 24.6 °F 26% 29.93 in 10.0 mi South 19.6 mph 28.8 mph N/A   Clear
5:55 PM 58.1 °F - 25.2 °F 28% 29.93 in 10.0 mi SSW 17.3 mph 23.0 mph N/A   Clear
6:15 PM 57.0 °F - 26.2 °F 31% 29.92 in 10.0 mi South 20.7 mph 25.3 mph N/A   Clear
6:35 PM 56.1 °F - 27.0 °F 33% 29.93 in 10.0 mi South 16.1 mph 24.2 mph N/A   Clear
6:55 PM 54.7 °F - 27.1 °F 35% 29.95 in 10.0 mi South 16.1 mph - N/A   Clear
7:15 PM 53.4 °F - 27.5 °F 37% 29.96 in 10.0 mi South 13.8 mph - N/A   Clear
7:35 PM 52.2 °F - 28.0 °F 39% 29.96 in 10.0 mi South 13.8 mph - N/A   Clear
7:55 PM 51.8 °F - 28.0 °F 40% 29.96 in 10.0 mi South 16.1 mph 21.9 mph N/A   Clear
8:15 PM 50.9 °F - 28.2 °F 42% 29.94 in 10.0 mi South 19.6 mph - N/A   Clear
8:35 PM 50.0 °F - 29.1 °F 45% 29.94 in 10.0 mi South 17.3 mph - N/A   Clear
8:55 PM 49.1 °F - 30.2 °F 48% 29.94 in 10.0 mi SSW 17.3 mph 23.0 mph N/A   Clear
9:15 PM 49.5 °F - 32.2 °F 51% 29.95 in 10.0 mi South 18.4 mph 23.0 mph N/A   Clear
9:35 PM 49.1 °F - 34.2 °F 56% 29.94 in 10.0 mi South 18.4 mph 23.0 mph N/A   Clear
9:55 PM 49.5 °F - 36.5 °F 61% 29.95 in 10.0 mi South 17.3 mph 23.0 mph N/A   Clear
10:15 PM 48.7 °F - 37.6 °F 65% 29.95 in 10.0 mi South 17.3 mph 23.0 mph N/A   Clear
10:35 PM 48.6 °F - 38.3 °F 68% 29.95 in 10.0 mi South 18.4 mph - N/A   Clear
10:55 PM 47.7 °F - 38.7 °F 71% 29.95 in 10.0 mi South 21.9 mph 27.6 mph N/A   Clear
11:15 PM 47.3 °F - 39.4 °F 74% 29.95 in 10.0 mi South 19.6 mph 24.2 mph N/A   Clear
11:35 PM 47.3 °F - 40.1 °F 76% 29.95 in 10.0 mi SSW 19.6 mph 27.6 mph N/A   Clear
11:55 PM 46.8 °F - 40.3 °F 78% 29.94 in 10.0 mi South 18.4 mph 24.2 mph N/A   Clear